Location: Melbourne
(37.8170°S, 144.9670°E)
Time: 05:00:46
(UTC+10:00)

ISS - Visible Passes

Search period start: 24 June 2017 00:00
Search period end: 04 July 2017 00:00
Orbit: 401 x 408 km, 51.6° (Epoch: 24 June)

Date Brightness Start Highest point End Pass type
(mag) Time Alt. Az. Time Alt. Az. Time Alt. Az.
26 Jun -0.7 19:33:40 10° NNW 19:33:54 12° NNW 19:33:54 12° NNW visible
27 Jun -2.2 18:42:04 10° N 18:44:15 22° NNE 18:44:15 22° NNE visible
28 Jun -1.4 17:51:29 10° NNE 17:52:45 12° NE 17:54:02 10° ENE visible
28 Jun -1.7 19:25:32 10° WNW 19:27:13 27° WNW 19:27:13 27° WNW visible
29 Jun -3.7 18:33:19 10° NW 18:36:35 63° NE 18:37:24 44° ESE visible
30 Jun -2.6 17:41:30 10° NNW 17:44:26 30° NE 17:47:24 10° ESE visible
30 Jun -1.8 19:17:57 10° W 19:20:11 26° SW 19:20:11 26° SW visible
01 Jul -3.1 18:25:17 10° WNW 18:28:31 49° SW 18:30:13 24° SSE visible
02 Jul -1.3 19:10:52 10° WSW 19:12:50 16° SSW 19:12:50 16° SSW visible
03 Jul -2.0 18:17:46 10° W 18:20:33 24° SSW 18:22:44 14° SSE visible
